This demonstration page uses our WeatherBlox Daily Observations layout. Learn more.

Hourly Observations for August 16, 2016

Temp ( °F °C ) Dew Point ( °F °C ) Humidity (%) Winds ( mph kmh ) Pressure ( in mb ) Visibility ( mi km ) Precip ( " mm )
12:54 am 00:54 Clear 68 20 64 17.8 87 87 S 9 15 30 1016 10 16.0934 0 0
1:54 am 01:54 Clear 67 19.4 63 17.2 87 87 S 10 17 29.98 1015 10 16.0934 0 0
2:54 am 02:54 Clear 68 20 63 17.2 84 84 SSW 7 11 30 1016 10 16.0934 0 0
3:54 am 03:54 Clear 67 19.4 62 16.7 84 84 Calm 30.01 1016 10 16.0934 0 0
4:54 am 04:54 Clear 68 20 63 17.2 84 84 Calm 30.04 1017 10 16.0934 0 0
5:54 am 05:54 Mostly Cloudy with Nearby Thunderstorms 68 20 64 17.8 87 87 NE 12 19 30.07 1018 10 16.0934 0 0
6:11 am 06:11 Cloudy 68 20 64 17.8 87 87 ENE 13 20 30.06 1018 10 16.0934 0 0
6:18 am 06:18 Mostly Cloudy with Nearby Thunderstorms 68 20 64 18 88 88 ENE 14 22 30.06 1018 10 16.0934 0 0
6:33 am 06:33 Mostly Cloudy 68 20 64 17.8 87 87 E 12 19 30.06 1018 10 16.0934 0 0
6:54 am 06:54 Partly Cloudy 68 20 64 17.8 87 87 E 9 15 30.06 1018 10 16.0934 0 0
7:54 am 07:54 Sunny 69 20.6 65 18.3 87 87 E 13 20 30.04 1017 10 16.0934 0 0
8:54 am 08:54 Sunny 71 21.7 65 18.3 81 81 SE 9 15 30.03 1017 10 16.0934 0 0
9:54 am 09:54 Mostly Cloudy 77 25 65 18.3 66 66 ESE 10 17 30.02 1017 10 16.0934 0 0
10:54 am 10:54 Mostly Sunny 79 26.1 67 19.4 67 67 E 10 17 30.04 1017 10 16.0934 0 0
11:54 am 11:54 Sunny 82 27.8 67 19.4 60 60 ESE 8 13 30.01 1016 10 16.0934 0 0
12:54 pm 12:54 Sunny 83 28.3 68 20 61 61 SSE 9 15 30 1016 10 16.0934 0 0
1:54 pm 13:54 Sunny 86 30 68 20 55 55 SSE 10 17 29.99 1016 10 16.0934 0 0
2:54 pm 14:54 Sunny 89 31.7 69 20.6 52 52 S 14 22 29.97 1015 10 16.0934 0 0
3:54 pm 15:54 Partly Cloudy 89 31.7 68 20 50 50 S 12 19 29.96 1015 10 16.0934 0 0
4:54 pm 16:54 Mostly Cloudy 90 32.2 67 19.4 47 47 S 10 17 29.94 1014 10 16.0934 0 0
5:54 pm 17:54 Mostly Cloudy 89 31.7 69 20.6 52 52 SSW 6 9 29.94 1014 10 16.0934 0 0
6:13 pm 18:13 Partly Cloudy with Nearby Thunderstorms 89 31.7 68 20 50 50 S 6 9 29.88 1012 10 16.0934 0 0
6:54 pm 18:54 Cloudy with Nearby Thunderstorms 89 31.7 69 20.6 52 52 WNW 8 13 29.94 1014 10 16.0934 0 0
7:54 pm 19:54 Sunny 80 26.7 68 20 67 67 ESE 15 24 29.96 1015 10 16.0934 0 0
8:07 pm 20:07 Sunny with Nearby Thunderstorms 80 26.7 66 18.9 62 62 ESE 10 17 29.94 1014 10 16.0934 0 0
8:22 pm 20:22 Sunny 79 26 61 16 54 54 ESE 14 22 29.94 1014 10 16.0934 0 0
8:54 pm 20:54 Clear 79 26.1 63 17.2 58 58 SE 13 20 29.99 1016 10 16.0934 0 0
9:54 pm 21:54 Mostly Clear 77 25 66 18.9 69 69 SSE 7 11 30 1016 10 16.0934 0 0
10:54 pm 22:54 Clear 75 23.9 67 19.4 76 76 S 5 7 30 1016 10 16.0934 0 0
11:54 pm 23:54 Clear 74 23.3 68 20 82 82 SSE 7 11 30.01 1016 10 16.0934 0 0

Powered by AerisWeather